This site uses a module created by best online poker sites.

BSB police report for January 17, 2020

"01/16/2020","00:34","220CR0001278","ALL OTHER","ALL OTHER","400 S CLARK ST","",""
"01/16/2020","01:32","220CR0001279","FRAUD","FORGERY/COUNTERFEIT","1915 DEWEY","",""
"01/16/2020","02:50","220CR0001280","MEDICAL - EMERGENCY","MEDICAL - EMERGENCY","3033 BUSCH #16","",""
"01/16/2020","03:27","220CR0001281","WELFARE CHECK","WELFARE CHECK","OREGON AVE AND SECOND ST","",""
"01/16/2020","06:40","220CR0001282","MEDICAL - EMERGENCY","MEDICAL - EMERGENCY","3039 ATHERTON LN","",""
"01/16/2020","07:42","220CR0001283","CIVIL PAPER SERVICE","CIVIL PAPER SERVICE","725 9TH STREET","",""
"01/16/2020","07:48","220CR0001284","ALARM - BURGLARY","ALARM - BURGLARY","************","",""
"01/16/2020","07:53","220CR0001285","SUSPICIOUS ACTIVITY","SUSPICIOUS ACTIVITY","1370 HARRISON AVE","",""
"01/16/2020","08:05","220CR0001286","CIVIL PAPER SERVICE","CIVIL PAPER SERVICE","1913 S MONTANA","",""
"01/16/2020","08:06","220CR0001287","CIVIL PAPER SERVICE","CIVIL PAPER SERVICE","3113 RICHARDSON","",""
"01/16/2020","08:09","220CR0001288","T/S","T/S","ROWE RD AND CLINTON","",""
"01/16/2020","08:18","220CR0001289","CIVIL PAPER SERVICE","CIVIL PAPER SERVICE","3445 KENNEDY ST","",""
"01/16/2020","08:21","220CR0001290","CIVIL PAPER SERVICE","CIVIL PAPER SERVICE","11 REDWOOD DR","",""
"01/16/2020","08:42","220CR0001291","LED BUSINESS","LED BUSINESS","155 W GRANITE","",""
"01/16/2020","08:43","220CR0001292","CIVIL PAPER SERVICE","CIVIL PAPER SERVICE","108 E CENTER","",""
"01/16/2020","08:48","220CR0001293","LED BUSINESS","LED BUSINESS","435 S CRYSTAL ST","",""
"01/16/2020","08:49","220CR0001294","VANDALISM/CRIMINAL MISCHIEF","CRIMINAL MISCHIEF","1 RAMSAY PLACE","",""
"01/16/2020","09:00","220CR0001295","JUVENILE MISC","JUVENILE MISC","************","",""
"01/16/2020","09:09","220CR0001296","CIVIL PAPER SERVICE","CIVIL PAPER SERVICE","912 CALIFORNIA","",""
"01/16/2020","09:23","220CR0001297","DETENTION BUSINESS","DETENTION BUSINESS","************","",""
"01/16/2020","09:29","220CR0001298","SUSPICIOUS ACTIVITY","SUSPICIOUS ACTIVITY","10 BLK E GRANITE","",""
"01/16/2020","09:30","220CR0001299","FRAUD","THEFT, ALL OTHERS","77020 HWY 43","",""
"01/16/2020","09:39","220CR0001300","T/S","T/S @ 840 S MONTANA ST","840 S MONTANA ST","",""
"01/16/2020","09:41","220CR0001301","JUVENILE MISC","JUVENILE MISC","************","",""
"01/16/2020","10:54","220CR0001302","T/S","T/S","3000 BLK CONTINENTAL","",""
"01/16/2020","10:55","220CR0001303","T/S","T/S","222 E PARK","",""
"01/16/2020","11:15","220CR0001304","WANTED PERSON","WANTED PERSON","************","",""
"01/16/2020","11:24","220CR0001305","SUSPICIOUS ACTIVITY","SUSPICIOUS ACTIVITY","700 ROW SILVER BOW HOMES","",""
"01/16/2020","11:26","220CR0001306","THEFT","THEFT","1005 S MONTANA ST","",""
"01/16/2020","11:39","220CR0001307","DETENTION BUSINESS","DETENTION BUSINESS","************","",""
"01/16/2020","11:42","220CR0001308","SUSPICIOUS ACTIVITY","SUSPICIOUS ACTIVITY","2305 CONTINENTAL DR TOWN PUMP","",""
"01/16/2020","12:14","220CR0001309","THEFT","THEFT, SHOPLIFT","310 W FRONT ST","",""
"01/16/2020","12:40","220CR0001311","DETENTION BUSINESS","DETENTION BUSINESS","************","",""
"01/16/2020","13:09","220CR0001313","THEFT","THEFT","3901 HARRISON AVE","",""
"01/16/2020","13:17","220CR0001314","DISTURBANCE","DISTURBANCE","1960 WALNUT","",""
"01/16/2020","13:20","220CR0001315","WELFARE CHECK","WELFARE CHECK","2205 FAIRWAY","",""
"01/16/2020","13:27","220CR0001316","CIVIL PAPER SERVICE","CIVIL PAPER SERVICE","203 SILVER BOW HOMES","",""
"01/16/2020","13:55","220CR0001317","CIVIL PAPER SERVICE","CIVIL PAPER SERVICE","2925 KOSSUTH","",""
"01/16/2020","14:04","220CR0001318","ALARM - MEDICAL","ALARM - MEDICAL","************","",""
"01/16/2020","14:28","220CR0001320","MEDICAL - EMERGENCY","MEDICAL - EMERGENCY","1639 HARRISON AVE","",""
"01/16/2020","14:35","220CR0001321","DETENTION BUSINESS","DETENTION BUSINESS","************","",""
"01/16/2020","15:33","220CR0001322","T/S","T/S @ MONTANA AND ALUMINUM","MONTANA AND ALUMINUM","",""
"01/16/2020","16:02","220CR0001323","T/S","T/S @ GOLD AND MONTANA","GOLD AND MONTANA","",""
"01/16/2020","16:17","220CR0001324","T/S","CRIMINAL CONTEMPT","800 BLK S MONTANA","ARREST(s) MADE",""
"01/16/2020","16:25","220CR0001325","DISTURBANCE","DISTURBANCE","THRIFTWAY AMHERST // HARRISON","",""
"01/16/2020","16:28","220CR0001326","ATL","ATL","SANTA CLAUS RD","",""
"01/16/2020","16:42","220CR0001327","ACCIDENT","ACCIDENT","1355 TEXAS","",""
"01/16/2020","17:07","220CR0001328","ALARM - BURGLARY","ALARM - BURGLARY","************","",""
"01/16/2020","17:11","220CR0001329","SUSPICIOUS ACTIVITY","SUSPICIOUS ACTIVITY","2929 HARRISON AVE #226","",""
"01/16/2020","17:53","220CR0001330","DISTURBANCE","DISTURBANCE","1511 GAYLORD","",""
"01/16/2020","18:24","220CR0001331","ATL","ATL","","",""
"01/16/2020","18:45","220CR0001333","FIRE - OTHER","FIRE - OTHER","150 MOOSE CREEK RD","",""
"01/16/2020","18:46","220CR0001332","SUSPICIOUS ACTIVITY","SUSPICIOUS ACTIVITY","2500  BLK WALNUT","",""
"01/16/2020","18:51","220CR0001334","ASSAULT","ASSAULT","************","",""
"01/16/2020","18:55","220CR0001335","CIVIL PAPER SERVICE","CIVIL PAPER SERVICE","224 AMERICAN DR","",""
"01/16/2020","19:00","220CR0001336","T/S","T/S","JOSETTE AND ROWE","",""
"01/16/2020","19:02","220CR0001337","SUICIDE ATTEMPT/THREAT","SUICIDE ATTEMPT/THREAT","************","",""
"01/16/2020","19:17","220CR0001338","VANDALISM/CRIMINAL MISCHIEF","VANDALISM/CRIMINAL MISCHIEF","642 TRAVONIA","",""
"01/16/2020","19:22","220CR0001339","WELFARE CHECK","WELFARE CHECK","225 N ALASKA","",""
"01/16/2020","19:39","220CR0001341","SUSPICIOUS ACTIVITY","SUSPICIOUS ACTIVITY","MAIN X PACIFIC","",""
"01/16/2020","20:00","220CR0001342","MEDICAL - EMERGENCY","MEDICAL - EMERGENCY","205 W GRANITE #207","",""
"01/16/2020","20:44","220CR0001343","ALL OTHER","ALL OTHER","1125 S MAIN #101","",""
"01/16/2020","21:02","220CR0001344","THEFT","THEFT","2701 YALE","",""
"01/16/2020","21:06","220CR0001345","PARKING COMPLAINT","PARKING COMPLAINT","1040 S MONTANA ST","",""
"01/16/2020","22:02","220CR0001347","HARASSMENT","HARASSMENT","703 N MONTANA GOODWILL BAR","",""
"01/16/2020","22:12","220CR0001348","MEDICAL - EMERGENCY","MEDICAL - EMERGENCY","1101 1/2 S ARIZONA","",""
"01/16/2020","22:23","220CR0001349","CITIZEN AID","CITIZEN AID","GOODWILL BAR","",""
"01/16/2020","22:58","220CR0001350","MEDICAL - EMERGENCY","MEDICAL - EMERGENCY","1515 OREGON #603","",""
"01/16/2020","23:21","220CR0001351","VANDALISM/CRIMINAL MISCHIEF","CRIMINAL MISCHIEF","5101 S WARREN #10","",""
"01/16/2020","23:38","220CR0001352","SUSPICIOUS ACTIVITY","SUSPICIOUS ACTIVITY","2109 YALE","",""
"01/17/2020","00:14","220CR0001353","BUSINESS CHECK","BUSINESS CHECK","3700 HARRISON","",""
"01/17/2020","00:24","220CR0001354","MEDICAL - EMERGENCY","MEDICAL - EMERGENCY","155 W QUARTZ","",""
"01/17/2020","01:21","220CR0001355","CIVIL PAPER SERVICE","CIVIL PAPER SERVICE","5101 S WARREN #8","",""
"01/17/2020","01:29","220CR0001356","DISTURBANCE-NOISE","DISTURBANCE-NOISE","633 1/2 S MONTANA","",""
"01/17/2020","01:31","220CR0001357","SUSPICIOUS ACTIVITY","SUSPICIOUS ACTIVITY","MAIN AND PARK","",""
"01/17/2020","02:28","220CR0001358","BUSINESS CHECK","BUSINESS CHECK","531 S MONTANA","",""
"01/17/2020","02:34","220CR0001359","BUSINESS CHECK","BUSINESS CHECK","1370 HARRISON","",""
"01/17/2020","02:45","220CR0001360","SUSPICIOUS ACTIVITY","SUSPICIOUS ACTIVITY","904 UTAH ST / WHALEN TIRE","",""
"01/17/2020","03:07","220CR0001361","FIRE- GAS ODOR","FIRE- GAS ODOR","223 S JACKSON","",""
"01/17/2020","03:48","220CR0001362","WELFARE CHECK","WELFARE CHECK","59 BENNETT","",""
"01/17/2020","07:24","220CR0001363","TRAFFIC HAZARD","TRAFFIC HAZARD","59 BENNET","",""
"01/17/2020","07:32","220CR0001364","CIVIL PAPER SERVICE","CIVIL PAPER SERVICE","910 EVANS APT E5","",""
"01/17/2020","07:36","220CR0001365","CIVIL PAPER SERVICE","CIVIL PAPER SERVICE","910 EVANS ST APT B5","",""
"01/17/2020","07:47","220CR0001366","CIVIL PAPER SERVICE","CIVIL PAPER SERVICE","517 W DALY ST","",""
 

BSB police report Thursday, January 16, 2020

"01/15/2020","00:00","220CR0001202","CITIZEN AID","CITIZEN AID","400 S CLARK ST","",""
"01/15/2020","00:36","220CR0001203","SUSPICIOUS ACTIVITY","SUSPICIOUS ACTIVITY","DEWEY BLVD AND HARRISON AVE","",""
"01/15/2020","00:57","220CR0001204","T/S","T/S","CONTINENTAL AND ST ANN","",""
"01/15/2020","01:43","220CR0001205","STOLEN VEHICLE","STOLEN VEHICLE","809 PLACER","",""
"01/15/2020","01:45","220CR0001206","SUSPICIOUS ACTIVITY","SUSPICIOUS ACTIVITY","507 CENTENNIAL","",""
"01/15/2020","03:11","220CR0001207","SUSPICIOUS ACTIVITY","SUSPICIOUS ACTIVITY","2544 HARRISON AV","",""
"01/15/2020","04:31","220CR0001208","BURGLARY","AGGRAVATED BURGLARY","700 SAMPSON #A","ARREST(s) MADE",""
"01/15/2020","04:46","220CR0001209","BURGLARY","AGGRAVATED BURGLARY","700 SAMPSON APT #C","ARREST(s) MADE",""
"01/15/2020","04:47","220CR0001210","BURGLARY","AGGRAVATED BURGLARY","700 SAMPSON #D","ARREST(s) MADE",""
"01/15/2020","05:05","220CR0001211","MEDICAL - EMERGENCY","MEDICAL - EMERGENCY","3 PINTLAR PEAK","",""
"01/15/2020","05:37","220CR0001212","WELFARE CHECK","WELFARE CHECK","16 W GALENA","",""
"01/15/2020","06:33","220CR0001213","THEFT","THEFT, ALL OTHERS","4034 ELIZABETH WARREN","",""
"01/15/2020","07:44","220CR0001214","HIT AND RUN","HIT AND RUN","CONTINENTAL AND HECLA","",""
"01/15/2020","07:51","220CR0001215","CIVIL PAPER SERVICE","CIVIL PAPER SERVICE","2602 S DAKOTA","",""
"01/15/2020","08:01","220CR0001216","TRAFFIC","TRAFFIC","2500 BLK PARROTT","",""
"01/15/2020","08:10","220CR0001217","CIVIL PAPER SERVICE","CIVIL PAPER SERVICE","842 COLORADO ST","",""
"01/15/2020","08:14","220CR0001218","CIVIL PAPER SERVICE","CIVIL PAPER SERVICE","709 S UTAH","",""
"01/15/2020","08:19","220CR0001219","CIVIL PAPER SERVICE","CIVIL PAPER SERVICE","1910 MONROE","",""
"01/15/2020","08:26","220CR0001220","T/S","T/S @ MAIN AND PLATINUM","MAIN AND PLATINUM","",""
"01/15/2020","08:37","220CR0001221","CIVIL PAPER SERVICE","CIVIL PAPER SERVICE","108 E CENTER","",""
"01/15/2020","08:38","220CR0001222","CIVIL PAPER SERVICE","CIVIL PAPER SERVICE","1913 S MONTANA","",""
"01/15/2020","08:39","220CR0001223","T/S","T/S @ ALUMINUM ST AND MAIN ST","ALUMINUM ST AND MAIN ST","",""
"01/15/2020","08:43","220CR0001224","MEDICAL - EMERGENCY","MEDICAL - EMERGENCY","306 N MAIN ST APT H","",""
"01/15/2020","08:57","220CR0001225","DETENTION BUSINESS","DETENTION BUSINESS","************","",""
"01/15/2020","08:58","220CR0001226","WELFARE CHECK","WELFARE CHECK","16 W GALENA","",""
"01/15/2020","09:24","220CR0001227","JUVENILE MISC","JUVENILE MISC","************","",""
"01/15/2020","09:36","220CR0001228","CIVIL PAPER SERVICE","CIVIL PAPER SERVICE","155 W GRANITE","",""
"01/15/2020","09:44","220CR0001229","CIVIL PAPER SERVICE","CIVIL PAPER SERVICE","735 S MAIN ST","",""
"01/15/2020","09:45","220CR0001230","DETENTION BUSINESS","DETENTION BUSINESS","************","",""
"01/15/2020","09:54","220CR0001231","FRAUD","FRAUD","225 N ALASKA","",""
"01/15/2020","10:24","220CR0001232","THEFT","THEFT FROM BUILDINGS","9940 US HWY 10","",""
"01/15/2020","10:34","220CR0001233","CIVIL PAPER SERVICE","CIVIL PAPER SERVICE","3901 HARRISON AVE","",""
"01/15/2020","10:54","220CR0001235","ABANDONED VEHICLE","ABANDONED VEHICLE","900 BLK COLORADO","",""
"01/15/2020","11:13","220CR0001237","RESTRAINING ORDER VIOLATION","RESTRAINING ORDER VIOLATION","************","",""
"01/15/2020","11:13","220CR0001236","CIVIL PAPER SERVICE","CIVIL PAPER SERVICE","1823 REYNOLDS","",""
"01/15/2020","11:27","220CR0001238","DETENTION BUSINESS","DETENTION BUSINESS","************","",""
"01/15/2020","11:47","220CR0001239","THEFT","THEFT","1636 HARRISON AVE","",""
"01/15/2020","11:51","220CR0001240","FRAUD","FRAUD","533 S DAKOTA ST","",""
"01/15/2020","13:13","220CR0001241","ASSIST OTHER AGENCY","ASSIST OTHER AGENCY","3536 GAYLORD","",""
"01/15/2020","13:24","220CR0001242","T/S","T/S @ DEWEY AND HILL","DEWEY AND HILL","",""
"01/15/2020","13:27","220CR0001243","THEFT","THEFT","1301 HARRISON AVE","",""
"01/15/2020","13:44","220CR0001244","T/S","T/S @ DEWEY AND HILL","DEWEY AND HILL","",""
"01/15/2020","14:21","220CR0001246","ACCIDENT","ACCIDENT","3800 BLK OF PAXSON","",""
"01/15/2020","14:40","220CR0001247","T/S","T/S @ 4100 HARRISON AVE","4100 HARRISON AVE","",""
"01/15/2020","15:03","220CR0001248","SUSPICIOUS ACTIVITY","SUSPICIOUS ACTIVITY","EVANS AVE AND NEVADA ST","",""
"01/15/2020","15:19","220CR0001249","HARASSMENT","HARASSMENT","225 N ALASKA ST","",""
"01/15/2020","15:34","220CR0001250","ACCIDENT - INJURY","ACCIDENT - INJURY","BEEF TRAIL ROAD","",""
"01/15/2020","15:49","220CR0001251","HARASSMENT","HARASSMENT","400 S CLARK ST","",""
"01/15/2020","15:57","220CR0001252","ACCIDENT","ACCIDENT","","",""
"01/15/2020","15:58","220CR0001253","ACCIDENT","ACCIDENT","HANCOCK AND BAYARD","",""
"01/15/2020","16:04","220CR0001254","FIRE- GAS ODOR","FIRE- GAS ODOR","156 W GRANITE ST","",""
"01/15/2020","16:24","220CR0001255","FRAUD","FORGERY/COUNTERFEIT","225 N ALASKA","",""
"01/15/2020","16:46","220CR0001257","JUVENILE MISC","JUVENILE MISC","************","",""
"01/15/2020","17:13","220CR0001258","SUSPICIOUS ACTIVITY","SUSPICIOUS ACTIVITY","MOULTON RES RD/WALKERVILLE","",""
"01/15/2020","17:15","220CR0001259","ALL OTHER","ALL OTHER","MONTANA AND JOSETTE","",""
"01/15/2020","17:18","220CR0001260","ABANDONED VEHICLE","ABANDONED VEHICLE","541 BASIN CREEK RD","",""
"01/15/2020","17:26","220CR0001261","DISTURBANCE","DISTURBANCE","652 1/2 S COLORADO","",""
"01/15/2020","17:52","220CR0001262","WANTED PERSON","WANTED PERSON","************","",""
"01/15/2020","18:10","220CR0001263","ACCIDENT","ACCIDENT","2500 MASSACHUSETTS AVE","",""
"01/15/2020","19:03","220CR0001264","THEFT","THEFT","3901 HARRISON AVE","",""
"01/15/2020","19:24","220CR0001265","SUSPICIOUS ACTIVITY","SUSPICIOUS ACTIVITY","DEWEY AND KAW","",""
"01/15/2020","19:27","220CR0001266","MEDICAL - EMERGENCY","MEDICAL - EMERGENCY","1022 MARYLAND #D","",""
"01/15/2020","20:31","220CR0001267","TRAFFIC HAZARD","TRAFFIC HAZARD","MONTANA AND PACIFIC","",""
"01/15/2020","21:02","220CR0001268","HARASSMENT","HARASSMENT","832 ZARELDA","",""
"01/15/2020","21:48","220CR0001270","SUSPICIOUS ACTIVITY","DUI DRUGS OR ALCOHOL","511 S MAIN ST","ARREST(s) MADE",""
"01/15/2020","22:10","220CR0001272","JUVENILE RUNAWAY","JUVENILE RUNAWAY","************","",""
"01/15/2020","22:13","220CR0001271","TRAFFIC HAZARD","TRAFFIC HAZARD","AREA OF BUTTE HIGH","",""
"01/15/2020","22:17","220CR0001273","HIT AND RUN","HIT AND RUN, HIGHWAY FIXTURES","60 W GALENA","ARREST(s) MADE",""
"01/15/2020","23:04","220CR0001275","JUVENILE MISC","JUVENILE MISC","************","",""
"01/15/2020","23:46","220CR0001277","STOLEN VEHICLE","ASSAULT PEACE OFFC - AGG/INJ","712 E FRONT ST","ARREST(s) MADE",""
"01/16/2020","00:34","220CR0001278","ALL OTHER","ALL OTHER","400 S CLARK ST","",""
"01/16/2020","01:32","220CR0001279","FRAUD","FORGERY/COUNTERFEIT","1915 DEWEY","",""
"01/16/2020","02:50","220CR0001280","MEDICAL - EMERGENCY","MEDICAL - EMERGENCY","3033 BUSCH #16","",""
"01/16/2020","03:27","220CR0001281","WELFARE CHECK","WELFARE CHECK","OREGON AVE AND SECOND ST","",""
"01/16/2020","06:40","220CR0001282","MEDICAL - EMERGENCY","MEDICAL - EMERGENCY","3039 ATHERTON LN","",""
"01/16/2020","07:42","220CR0001283","CIVIL PAPER SERVICE","CIVIL PAPER SERVICE","725 9TH STREET","",""
"01/16/2020","07:48","220CR0001284","ALARM - BURGLARY","ALARM - BURGLARY","************","",""
 

BSB police report January 14, 2020

"01/13/2020","01:21","220CR0001034","INTIMIDATION","INTIMIDATION","ALUMINUM AND COLORADO","",""
"01/13/2020","05:41","220CR0001035","ALL OTHER","ALL OTHER","MAUDE S CANYON","",""
"01/13/2020","06:39","220CR0001036","ALARM - BURGLARY","ALARM - BURGLARY","************","",""
"01/13/2020","07:44","220CR0001037","T/S","T/S","FRONT ST AND OREGON AVE","",""
"01/13/2020","07:48","220CR0001038","CIVIL PAPER SERVICE","CIVIL PAPER SERVICE","1414 SUNRISE LN","",""
"01/13/2020","07:59","220CR0001039","CIVIL PAPER SERVICE","CIVIL PAPER SERVICE","201 HOBSON ST #16","",""
"01/13/2020","08:06","220CR0001040","CIVIL PAPER SERVICE","CIVIL PAPER SERVICE","3113 RICHARDSON","",""
"01/13/2020","08:15","220CR0001041","CIVIL PAPER SERVICE","CIVIL PAPER SERVICE","1823 REYNOLDS ST","",""
"01/13/2020","08:22","220CR0001042","SUSPICIOUS ACTIVITY","SUSPICIOUS ACTIVITY","1000 BLK GEORGE","",""
"01/13/2020","08:26","220CR0001043","CIVIL PAPER SERVICE","CIVIL PAPER SERVICE","3001 HARRISON","",""
"01/13/2020","08:26","220CR0001044","CIVIL PAPER SERVICE","CIVIL PAPER SERVICE","2212 WALNUT","",""
"01/13/2020","08:32","220CR0001045","CIVIL PAPER SERVICE","CIVIL PAPER SERVICE","735 S MAIN","",""
"01/13/2020","08:33","220CR0001046","CIVIL PAPER SERVICE","CIVIL PAPER SERVICE","1916 THORNTON","",""
"01/13/2020","08:37","220CR0001047","STOLEN VEHICLE","MOTOR VEHICLE THEFT","1515 OREGON AVE #804","",""
"01/13/2020","08:38","220CR0001048","CIVIL PAPER SERVICE","CIVIL PAPER SERVICE","1967 LOWELL AVE","",""
"01/13/2020","08:43","220CR0001049","CIVIL PAPER SERVICE","CIVIL PAPER SERVICE","825 EVANS ST","",""
"01/13/2020","08:49","220CR0001050","CIVIL PAPER SERVICE","CIVIL PAPER SERVICE","840 S UTAH","",""
"01/13/2020","08:52","220CR0001051","CIVIL PAPER SERVICE","CIVIL PAPER SERVICE","912 CALIFORNIA","",""
"01/13/2020","08:58","220CR0001052","WELFARE CHECK","WELFARE CHECK","1660 LOWELL","",""
"01/13/2020","09:02","220CR0001053","CIVIL PAPER SERVICE","CIVIL PAPER SERVICE","3013 RICHARDSON ST","",""
"01/13/2020","09:02","220CR0001054","CIVIL PAPER SERVICE","CIVIL PAPER SERVICE","709 UTAH AVE","",""
"01/13/2020","09:03","220CR0001055","SNOW REMOVAL COMPLAINT","SNOW REMOVAL COMPLAINT","2225 PRINCETON ST","",""
"01/13/2020","09:10","220CR0001056","JUVENILE MISC","JUVENILE MISC","************","",""
"01/13/2020","09:11","220CR0001057","THEFT","THEFT","3100 WYNNE AVE","",""
"01/13/2020","09:24","220CR0001058","THEFT","BURGLARY, RESIDENCE","2207 SILVER BOW BLVD","",""
"01/13/2020","09:34","220CR0001059","THEFT","THEFT","3883 HARRISON AVE","",""
"01/13/2020","09:42","220CR0001060","FIRE- GAS ODOR","FIRE- GAS ODOR","709 1/2 W GALENA","",""
"01/13/2020","09:44","220CR0001061","T/S","CRIMINAL CONTEMPT","3100 BLK WYNNE AVE","ARREST(s) MADE",""
"01/13/2020","10:00","220CR0001062","SUSPICIOUS ACTIVITY","SUSPICIOUS ACTIVITY","1125 S MAIN APT 109","",""
"01/13/2020","10:19","220CR0001063","JUVENILE MISC","JUVENILE MISC","************","",""
"01/13/2020","10:35","220CR0001064","HIT AND RUN","FAIL TO ID, SELF AND VEHICLE","ELIZ WARREN AND HARRISON","",""
"01/13/2020","10:50","220CR0001065","DISTURBANCE-NOISE","DISTURBANCE-NOISE","614 W PARK","",""
"01/13/2020","10:59","220CR0001067","HARASSMENT","HARASSMENT","UKN","",""
"01/13/2020","11:11","220CR0001068","HARASSMENT","HARASSMENT","3139 BOZEMAN AVE","",""
"01/13/2020","11:30","220CR0001069","CIVIL PAPER SERVICE","CIVIL PAPER SERVICE","709 UTAH AVE","",""
"01/13/2020","11:37","220CR0001070","ABANDONED VEHICLE","ABANDONED VEHICLE","2337 COBBAN","",""
"01/13/2020","11:38","220CR0001071","CIVIL PAPER SERVICE","CIVIL PAPER SERVICE","3060 JOSEPHINE ST","",""
"01/13/2020","11:39","220CR0001072","ALARM - BURGLARY","ALARM - BURGLARY","************","",""
"01/13/2020","11:43","220CR0001073","T/S","T/S","OTTAWA ST AND PORTER","",""
"01/13/2020","12:19","220CR0001074","CIVIL PAPER SERVICE","CIVIL PAPER SERVICE","130 E PARK","",""
"01/13/2020","12:22","220CR0001075","LED BUSINESS","LED BUSINESS","UPTOWN BUTTE FOOT PATROL","",""
"01/13/2020","12:34","220CR0001076","LED BUSINESS","LED BUSINESS","RURAL PATROL","",""
"01/13/2020","12:50","220CR0001077","CIVIL PAPER SERVICE","CIVIL PAPER SERVICE","1235 GRIZZLY TRAIL","",""
"01/13/2020","12:57","220CR0001078","HARASSMENT","HARASSMENT","2647 GOODWIN","",""
"01/13/2020","13:02","220CR0001079","CIVIL PAPER SERVICE","CIVIL PAPER SERVICE","1228 RACOON WAY","",""
"01/13/2020","13:15","220CR0001080","ATL","ATL","1300 BLK HARRISON AVE","",""
"01/13/2020","13:20","220CR0001081","HIT AND RUN","HIT AND RUN","2508 S MAIN","",""
"01/13/2020","13:36","220CR0001082","CIVIL PAPER SERVICE","CIVIL PAPER SERVICE","","",""
"01/13/2020","13:53","220CR0001083","THEFT","THEFT","1722 THORNTON AVE","",""
"01/13/2020","14:02","220CR0001084","WANTED PERSON","WANTED PERSON","************","",""
"01/13/2020","14:33","220CR0001085","ABANDONED VEHICLE","ABANDONED VEHICLE","3400 HILL 500 ROW","",""
"01/13/2020","14:56","220CR0001086","T/S","T/S","PARK ST AND DAKOTA ST","",""
"01/13/2020","14:56","220CR0001087","CIVIL PAPER SERVICE","CIVIL PAPER SERVICE","22 AMERICAN DR","",""
"01/13/2020","15:03","220CR0001088","ALARM - BURGLARY","ALARM - BURGLARY","************","",""
"01/13/2020","15:13","220CR0001089","CITIZEN AID","CITIZEN AID","900 BLK S COLORADO","",""
"01/13/2020","15:15","220CR0001090","T/S","HABITUAL OFFENDER OPER. VEH","COLORADO AND IRON","ARREST(s) MADE",""
"01/13/2020","15:18","220CR0001091","THEFT","THEFT FROM MOTOR VEHICLE","OREGON AVE AND MARCIA ST","",""
"01/13/2020","15:45","220CR0001092","WELFARE CHECK","WELFARE CHECK","939 CALEDONIA","",""
"01/13/2020","15:47","220CR0001093","STOLEN VEHICLE","STOLEN VEHICLE","3766 HARRISON AVE","",""
"01/13/2020","15:49","220CR0001094","LED BUSINESS","LED BUSINESS","225 N ALASKA ST","",""
"01/13/2020","15:55","220CR0001095","THEFT","THEFT LOST OR MISLAID PROPERTY","225 N ALASKA","",""
"01/13/2020","16:08","220CR0001096","CIVIL STANDBY","CIVIL STANDBY","225 N ALASKA ST","",""
"01/13/2020","16:12","220CR0001097","CIVIL STANDBY","CIVIL STANDBY","819 N HENRY","",""
"01/13/2020","16:16","220CR0001098","UNWANTED PERSON","UNWANTED PERSON","************","",""
"01/13/2020","16:39","220CR0001099","HARASSMENT","HARASSMENT","225 N ALASKA","",""
"01/13/2020","16:50","220CR0001100","SUSPICIOUS ACTIVITY","SUSPICIOUS ACTIVITY","GRAND & TEXAS","",""
"01/13/2020","17:16","220CR0001101","SUSPICIOUS ACTIVITY","SUSPICIOUS ACTIVITY","PINE ST // HAYES AVE","",""
"01/13/2020","17:20","220CR0001102","TRAFFIC HAZARD","TRAFFIC HAZARD","1006 W QUARTZ ST","",""
"01/13/2020","17:31","220CR0001103","TRAFFIC HAZARD","TRAFFIC HAZARD","59 E BENNETT","",""
"01/13/2020","18:24","220CR0001104","JUVENILE MISC","UNGOVERNABLE JUVENILE","1626 LOWELL #1","",""
"01/13/2020","18:44","220CR0001105","ATL","ATL","FRONT AT SAFEWAY","",""
"01/13/2020","19:18","220CR0001106","CIVIL PAPER SERVICE","CIVIL PAPER SERVICE","409 SILVER BOW HOMES","",""
"01/13/2020","19:30","220CR0001107","ALARM - BURGLARY","ALARM - BURGLARY","************","",""
"01/13/2020","20:05","220CR0001108","HARASSMENT","HARASSMENT","225 N ALASKA","",""
"01/13/2020","20:39","220CR0001109","CIVIL STANDBY","CIVIL STANDBY","819 N HENRY","",""
"01/13/2020","21:00","220CR0001110","PARKING COMPLAINT","PARKING COMPLAINT","316 W PARK ST","",""
"01/13/2020","21:20","220CR0001111","THEFT","THEFT FROM MOTOR VEHICLE","1035 PLACER ST","",""
"01/13/2020","21:28","220CR0001112","T/S","T/S @ MONTANA AT BOARDMAN","MONTANA AT BOARDMAN","",""
"01/13/2020","21:37","220CR0001113","FIRE - STRUCTURE","FIRE - STRUCTURE","2519 MOULTON ST","",""
"01/13/2020","22:05","220CR0001115","SUICIDE ATTEMPT/THREAT","SUICIDE ATTEMPT/THREAT","************","",""
"01/13/2020","22:49","220CR0001116","ALARM - FIRE","ALARM - FIRE","1300 W PARK ST","",""
"01/13/2020","22:55","220CR0001117","INTIMIDATION","INTIMIDATION","23 E CENTER","",""
"01/13/2020","23:01","220CR0001118","MEDICAL - EMERGENCY","MEDICAL - EMERGENCY","2550 MOULTON","",""
"01/13/2020","23:08","220CR0001119","BUSINESS CHECK","BUSINESS CHECK","531 S MONTANA","",""
"01/13/2020","23:29","220CR0001121","SUSPICIOUS ACTIVITY","SUSPICIOUS ACTIVITY","1915 BLK DEWEY","",""
"01/14/2020","00:10","220CR0001122","BUSINESS CHECK","BUSINESS CHECK","1370 HARRISON","",""
"01/14/2020","00:50","220CR0001123","SUSPICIOUS ACTIVITY","SUSPICIOUS ACTIVITY","PINION AND HARVARD","",""
"01/14/2020","01:33","220CR0001124","DISTURBANCE","DISTURBANCE","1511 GAYLORD","",""
"01/14/2020","01:58","220CR0001125","ALL OTHER","ALL OTHER","1302 SILVER BOW HOMES","",""
"01/14/2020","02:17","220CR0001126","BUSINESS CHECK","BUSINESS CHECK","901 E FRONT ST","",""
"01/14/2020","02:25","220CR0001127","MEDICAL - EMERGENCY","MEDICAL - EMERGENCY","2517 ST ANN ST","",""
"01/14/2020","03:32","220CR0001128","WELFARE CHECK","WELFARE CHECK","223 S JACKSON","",""
"01/14/2020","06:28","220CR0001130","STOLEN VEHICLE","STOLEN VEHICLE","206 W GRANITE ST","",""
"01/14/2020","06:30","220CR0001131","MEDICAL - EMERGENCY","MEDICAL - EMERGENCY","207 W PARK","",""
"01/14/2020","06:52","220CR0001132","STOLEN VEHICLE","STOLEN VEHICLE","725 S WYOMING","",""
"01/14/2020","07:19","220CR0001133","T/S","T/S @ FIRST AND WYOMING ST","FIRST AND WYOMING ST","",""
 

BSB police report January 13, 2020

"01/10/2020","01:36","220CR0000811","HARASSMENT","HARASSMENT","1503 SILVERBOW HOMES","",""
"01/10/2020","01:55","220CR0000812","MEDICAL - EMERGENCY","MEDICAL - EMERGENCY","3220 EVANS","",""
"01/10/2020","02:21","220CR0000813","MEDICAL - EMERGENCY","MEDICAL - EMERGENCY","1324 HARRISON AVE","",""
"01/10/2020","03:06","220CR0000814","DISTURBANCE","DISTURBANCE","1125 S MAIN ST #101","",""
"01/10/2020","05:43","220CR0000816","MEDICAL - ASSIST","MEDICAL - ASSIST","************","",""
"01/10/2020","06:21","220CR0000817","ALARM - BURGLARY","ALARM - BURGLARY","************","",""
"01/10/2020","07:37","220CR0000818","MEDICAL - EMERGENCY","MEDICAL - EMERGENCY","1914 MASSACHUSETTS AVE","",""
"01/10/2020","07:42","220CR0000819","CIVIL PAPER SERVICE","CIVIL PAPER SERVICE","709 S UTAH","",""
"01/10/2020","07:47","220CR0000820","ACCIDENT","ACCIDENT","3901 HARRISON AVE","",""
"01/10/2020","07:48","220CR0000821","CIVIL PAPER SERVICE","CIVIL PAPER SERVICE","1131 MISSOURI #C","",""
"01/10/2020","08:04","220CR0000822","SUSPICIOUS ACTIVITY","SUSPICIOUS ACTIVITY","ARIZONA AND FIRST","",""
"01/10/2020","08:07","220CR0000823","JUVENILE MISC","JUVENILE MISC","************","",""
"01/10/2020","08:10","220CR0000824","ACCIDENT- INJURY(MHP)","ACCIDENT- INJURY(MHP)","HWY 2 AND ROOSEVELT DR","",""
"01/10/2020","08:15","220CR0000825","CIVIL PAPER SERVICE","CIVIL PAPER SERVICE","3445 KENNEDY","",""
"01/10/2020","08:28","220CR0000826","CIVIL PAPER SERVICE","CIVIL PAPER SERVICE","1128 W QUARTZ","",""
"01/10/2020","08:29","220CR0000827","ABANDONED VEHICLE","ABANDONED VEHICLE","1515 N MAIN","",""
"01/10/2020","08:31","220CR0000828","CIVIL PAPER SERVICE","CIVIL PAPER SERVICE","1035 W WOOLMAN","",""
"01/10/2020","08:32","220CR0000829","OPEN BUILDING","OPEN BUILDING","221 N WESTERN","",""
"01/10/2020","08:44","220CR0000830","HIT AND RUN","HIT AND RUN","","",""
"01/10/2020","08:48","220CR0000831","CIVIL PAPER SERVICE","CIVIL PAPER SERVICE","1823 REYNOLDS","",""
"01/10/2020","08:50","220CR0000832","CIVIL PAPER SERVICE","CIVIL PAPER SERVICE","725 9TH","",""
"01/10/2020","08:52","220CR0000833","CIVIL PAPER SERVICE","CIVIL PAPER SERVICE","410 S EXCELSIOR","",""
"01/10/2020","09:01","220CR0000834","CIVIL PAPER SERVICE","CIVIL PAPER SERVICE","2204 WALNUT","",""
"01/10/2020","09:07","220CR0000835","CIVIL PAPER SERVICE","CIVIL PAPER SERVICE","201 HOBSON #16","",""
"01/10/2020","09:09","220CR0000836","CIVIL PAPER SERVICE","CIVIL PAPER SERVICE","825 EVANS AVE","",""
"01/10/2020","09:15","220CR0000837","CIVIL PAPER SERVICE","CIVIL PAPER SERVICE","912 CALIFORNIA AVE","",""
"01/10/2020","09:18","220CR0000838","CIVIL PAPER SERVICE","CIVIL PAPER SERVICE","1916 THORNTON","",""
"01/10/2020","09:32","220CR0000839","TRAFFIC HAZARD","TRAFFIC HAZARD","ELIZABETH WARREN AND HARRISON","",""
"01/10/2020","09:40","220CR0000840","THEFT","THEFT","1007 W GRANITE","",""
"01/10/2020","09:44","220CR0000841","ABANDONED VEHICLE (MHP)","ABANDONED VEHICLE (MHP)","I 15 MM 141 S BND","",""
"01/10/2020","09:52","220CR0000842","JUVENILE MISC","JUVENILE MISC","************","",""
"01/10/2020","10:12","220CR0000843","THEFT","THEFT, SHOPLIFT","3700 HARRISON TOWN PUMP","",""
"01/10/2020","10:19","220CR0000844","THEFT","THEFT","155 W QUARTZ","",""
"01/10/2020","10:27","220CR0000845","HARASSMENT","HARASSMENT","910 EVANS #B5","",""
"01/10/2020","10:41","220CR0000846","T/S","FAILURE TO WEAR SEATBELT","MONTANA AND ALUMINUM","",""
"01/10/2020","11:03","220CR0000847","CIVIL STANDBY","CIVIL STANDBY","2602 S DAKOTA","",""
"01/10/2020","12:23","220CR0000848","LED BUSINESS","LED BUSINESS","UPTOWN BUTTE","",""
"01/10/2020","12:28","220CR0000849","LED BUSINESS","LED BUSINESS","RURAL PATROL","",""
"01/10/2020","12:30","220CR0000850","MEDICAL - EMERGENCY","MEDICAL - EMERGENCY","3901 HARRISON WALMART","",""
"01/10/2020","12:35","220CR0000851","FRAUD","FORGERY/COUNTERFEIT","5050 HARRISON AVE/ RHR CONST","",""
"01/10/2020","12:48","220CR0000852","LED BUSINESS","LED BUSINESS","155 W GRANITE","",""
"01/10/2020","12:51","220CR0000853","ACCIDENT","ACCIDENT","305 W COPPER","",""
"01/10/2020","12:54","220CR0000854","CIVIL PAPER SERVICE","CIVIL PAPER SERVICE","692 BROWNS GULCH RD","",""
"01/10/2020","12:56","220CR0000855","THEFT","THEFT, SHOPLIFT","3901 HARRISON WALMART","",""
"01/10/2020","13:14","220CR0000856","MEDICAL - EMERGENCY","MEDICAL - EMERGENCY","23 LODGEPOLE LN","",""
"01/10/2020","13:16","220CR0000857","CIVIL PAPER SERVICE","CIVIL PAPER SERVICE","119011 JUNIPER ACRES","",""
"01/10/2020","13:40","220CR0000858","ASSIST OTHER AGENCY","ASSIST OTHER AGENCY","I15 MM 145 SB","",""
"01/10/2020","13:41","220CR0000859","WANTED PERSON","WANTED PERSON","************","",""
"01/10/2020","14:10","220CR0000860","T/S","T/S @ MONTANA AND ALUMINUM","MONTANA AND ALUMINUM","",""
"01/10/2020","14:39","220CR0000861","ALL OTHER","ALL OTHER","2003 PHILLIPS","",""
"01/10/2020","14:48","220CR0000862","THEFT","THEFT","2607 HARRISON ACE HARDWARE","",""
"01/10/2020","14:55","220CR0000863","HIT AND RUN","HIT AND RUN","1301 HARRISON TRUE VALUE HARDW","",""
"01/10/2020","15:32","220CR0000864","FRAUD","THEFT, ALL OTHERS","1905 FLORIDA","",""
"01/10/2020","15:36","220CR0000865","DISTURBANCE","DISTURBANCE","1000 BEEF TR COPPER MTN PARK","",""
"01/10/2020","15:47","220CR0000866","T/S","T/S @ MAIN ST AND SILVER ST","MAIN ST AND SILVER ST","",""
"01/10/2020","15:56","220CR0000867","THEFT","THEFT","225 N ALASKA","",""
"01/10/2020","15:57","220CR0000868","ISSUING BAD CHECKS","ISSUING BAD CHECKS","2607 HARRISON ACE HARDWARE","",""
"01/10/2020","16:01","220CR0000869","T/S","T/S @ CIVIC CENTER TOWN PUMP","CIVIC CENTER TOWN PUMP","",""
"01/10/2020","16:12","220CR0000870","T/S","T/S @ CIVIC CENTER TOWN PUMP","CIVIC CENTER TOWN PUMP","",""
"01/10/2020","16:23","220CR0000871","DISTURBANCE","RESISTING ARREST","609 SILVER BOW HOMES","ARREST(s) MADE",""
"01/10/2020","16:32","220CR0000872","DISTURBANCE","DISTURBANCE","MT CON","",""
"01/10/2020","16:39","220CR0000873","DISTURBANCE","DISTURBANCE","2003 PHILLIPS AVE","",""
"01/10/2020","16:48","220CR0000874","THEFT","THEFT, ALL OTHERS","2032 LOCUST","",""
"01/10/2020","17:12","220CR0000875","ATL","HIT AND RUN, HIGHWAY FIXTURES","LONGFELLOW & WARREN","ARREST(s) MADE",""
"01/10/2020","17:14","220CR0000876","MEDICAL - EMERGENCY","MEDICAL - EMERGENCY","2003 PHILLIPS","",""
"01/10/2020","17:32","220CR0000877","SUICIDE ATTEMPT/THREAT","SUICIDE ATTEMPT/THREAT","************","",""
"01/10/2020","18:03","220CR0000878","T/S","T/S","SHERMAN AND AMHERST","",""
"01/10/2020","18:05","220CR0000879","MEDICAL - EMERGENCY","MEDICAL - EMERGENCY","155 W GRANITE","",""
"01/10/2020","18:22","220CR0000880","ALARM - BURGLARY","ALARM - BURGLARY","************","",""
"01/10/2020","18:38","220CR0000881","WELFARE CHECK","WELFARE CHECK","16 W GALENA #D","",""
"01/10/2020","19:06","220CR0000882","ALARM - BURGLARY","ALARM - BURGLARY","************","",""
"01/10/2020","19:35","220CR0000883","T/S","T/S","CORNELL AND FARRAGUT","",""
"01/10/2020","19:47","220CR0000884","DISTURBANCE","DISTURBANCE","2304 CORNELL","",""
"01/10/2020","20:13","220CR0000886","SUSPICIOUS ACTIVITY","SUSPICIOUS ACTIVITY","BELL ST AND BUFFALO","",""
"01/10/2020","20:25","220CR0000887","VANDALISM/CRIMINAL MISCHIEF","THEFT FROM MOTOR VEHICLE","600 BLK S MONTANA","",""
"01/10/2020","20:31","220CR0000888","SUSPICIOUS ACTIVITY","SUSPICIOUS ACTIVITY","2701 1/2 YALE","",""
"01/10/2020","20:37","220CR0000889","WELFARE CHECK","WELFARE CHECK","58 W PARK","",""
"01/10/2020","21:37","220CR0000890","MEDICAL - EMERGENCY","MEDICAL - EMERGENCY","3235 HARRISON AVE","",""
"01/10/2020","21:48","220CR0000891","DISTURBANCE","DISTURBANCE","HOWARD AVE AND LOCUST ST","",""
"01/10/2020","22:13","220CR0000892","UNWANTED PERSON","UNWANTED PERSON","************","",""
"01/10/2020","22:51","220CR0000893","MEDICAL - EMERGENCY","MEDICAL - EMERGENCY","1822 SHERMAN","",""
"01/10/2020","23:07","220CR0000894","T/S","T/S","500 BLK S MAIN","",""
"01/10/2020","23:15","220CR0000895","CITIZEN AID","CITIZEN AID","400 S CLARK ST","",""
"01/10/2020","23:18","220CR0000896","ALL OTHER","ALL OTHER","900 BLK IOWA ST","",""
"01/10/2020","23:20","220CR0000897","MEDICAL - EMERGENCY","MEDICAL - EMERGENCY","531 S MONTANA","",""
"01/10/2020","23:45","220CR0000899","WANTED PERSON","WANTED PERSON","************","",""
"01/11/2020","00:17","220CR0000900","MEDICAL - EMERGENCY","MEDICAL - EMERGENCY","FAIRMONT HOTSPRINGS RM 302","",""
"01/11/2020","00:26","220CR0000901","SUSPICIOUS ACTIVITY","SUSPICIOUS ACTIVITY","501 W GRANITE ST","",""
"01/11/2020","01:08","220CR0000902","MEDICAL - EMERGENCY","MEDICAL - EMERGENCY","3101 PRINCETON","",""
"01/11/2020","01:16","220CR0000903","T/S","SPEEDING","HARRISON AND A ST","",""
"01/11/2020","02:22","220CR0000904","MEDICAL - EMERGENCY","MEDICAL - EMERGENCY","1302 SILVERBOW HOMES","",""
"01/11/2020","02:54","220CR0000905","SUSPICIOUS ACTIVITY","FALSE REPORT TO LAW ENFORCEMNT","1201 S MONTANA","ARREST(s) MADE",""
"01/11/2020","02:58","220CR0000906","SUSPICIOUS ACTIVITY","SUSPICIOUS ACTIVITY","200 BLK S DAKOTA","",""
"01/11/2020","03:11","220CR0000907","T/S","STOP SIGN VIOLATION","MONTANA AND PORPHYRY","",""
"01/11/2020","03:51","220CR0000908","THEFT","THEFT","1915 DEWEY","",""
"01/11/2020","04:47","220CR0000909","CITIZEN AID","CITIZEN AID","1324 HARRISON","",""
"01/11/2020","06:16","220CR0000910","CITIZEN AID","CITIZEN AID","1125 S MAIN #311","",""
"01/11/2020","06:23","220CR0000911","MEDICAL - EMERGENCY","MEDICAL - EMERGENCY","86 COTTAGE LOOP","",""
"01/11/2020","06:58","220CR0000912","SUSPICIOUS ACTIVITY","SUSPICIOUS ACTIVITY","BULL RUN GULCH // FROG POND","",""
"01/11/2020","07:11","220CR0000913","WELFARE CHECK","WELFARE CHECK","315 S JACKSON #D","",""
"01/11/2020","07:43","220CR0000914","WELFARE CHECK","WELFARE CHECK","2003 PHILLIPS AVE","",""
"01/11/2020","08:37","220CR0000915","CIVIL PAPER SERVICE","CIVIL PAPER SERVICE","912 CALIFORNIA","",""
"01/11/2020","08:47","220CR0000916","CIVIL PAPER SERVICE","CIVIL PAPER SERVICE","725 9TH ST","",""
"01/11/2020","08:56","220CR0000917","CIVIL PAPER SERVICE","CIVIL PAPER SERVICE","1910 MONROE","",""
"01/11/2020","09:02","220CR0000918","CIVIL PAPER SERVICE","CIVIL PAPER SERVICE","1746 THOMAS","",""
"01/11/2020","09:04","220CR0000919","CIVIL PAPER SERVICE","CIVIL PAPER SERVICE","1604 HANCOCK","",""
"01/11/2020","09:09","220CR0000920","CIVIL PAPER SERVICE","CIVIL PAPER SERVICE","1823 REYNOLDS","",""
"01/11/2020","09:54","220CR0000921","MEDICAL - EMERGENCY","MEDICAL - EMERGENCY","306 N MAIN #H","",""
"01/11/2020","11:39","220CR0000922","ANIMAL COMPLAINT","ANIMAL COMPLAINT","","",""
"01/11/2020","11:46","220CR0000923","SUSPICIOUS ACTIVITY","SUSPICIOUS ACTIVITY","904 S UTAH AVE","",""
"01/11/2020","11:47","220CR0000924","THEFT","THEFT, SHOPLIFT","3901 HARRISON AVE","",""
"01/11/2020","11:49","220CR0000925","ABANDONED VEHICLE","ABANDONED VEHICLE","1340 HARRISON AVE","",""
"01/11/2020","12:07","220CR0000926","CIVIL PAPER SERVICE","CIVIL PAPER SERVICE","1237 GRIZZLY TRAIL","",""
"01/11/2020","12:12","220CR0000927","ANIMAL COMPLAINT","ANIMAL COMPLAINT","1340 HARRISON AVE","",""
"01/11/2020","12:13","220CR0000928","ACCIDENT","OPERATING WITHOUT CURRENT REGI","45 THREE BEARS DR","",""
"01/11/2020","12:25","220CR0000929","DISTURBANCE","DISTURBANCE","2305 CONTINENTAL DR","",""
"01/11/2020","12:32","220CR0000930","CITIZEN AID","CITIZEN AID","2129 PHILLIPS AVE","",""
"01/11/2020","13:13","220CR0000931","THEFT","BURGLARY, NON-RESIDENCE","3516 S WARREN","",""
"01/11/2020","13:29","220CR0000932","T/S","DRIVE WHILE SUSP. OR REVOKED","800 BLK S MONTANA","",""
"01/11/2020","13:42","220CR0000933","ACCIDENT-MHP","ACCIDENT-MHP","I 15 MM 134 N BND","",""
"01/11/2020","13:51","220CR0000934","ACCIDENT","CARELESS DRIVING","800 BLK S UTAH","",""
"01/11/2020","13:53","220CR0000935","SUSPICIOUS ACTIVITY","SUSPICIOUS ACTIVITY","1299 HARRISON AVE","",""
"01/11/2020","14:22","220CR0000936","JUVENILE MISC","JUVENILE MISC","************","",""
"01/11/2020","14:23","220CR0000937","CIVIL STANDBY","CIVIL STANDBY","2602 SOUTH DAKOTA","",""
"01/11/2020","15:09","220CR0000938","T/S","T/S","HARRISON//GILMAN","",""
"01/11/2020","15:54","220CR0000939","THEFT","THEFT, SHOPLIFT","3205 HARRISON","",""
"01/11/2020","16:40","220CR0000940","MEDICAL - EMERGENCY","MEDICAL - EMERGENCY","2001 FLORIDA","",""
"01/11/2020","16:49","220CR0000941","DISTURBANCE","DISTURBANCE","819 N HENRY","",""
"01/11/2020","17:11","220CR0000942","MEDICAL - ASSIST","MEDICAL - ASSIST","************","",""
"01/11/2020","17:18","220CR0000943","SUICIDE ATTEMPT/THREAT","SUICIDE ATTEMPT/THREAT","************","",""
"01/11/2020","17:25","220CR0000944","ALARM - FIRE","ALARM - FIRE","401 S WYOMING ST","",""
"01/11/2020","17:33","220CR0000945","MEDICAL - EMERGENCY","MEDICAL - EMERGENCY","2555 COLORADO","",""
"01/11/2020","17:47","220CR0000946","SUSPICIOUS ACTIVITY","SUSPICIOUS ACTIVITY","70 TRINITY LOOP","",""
"01/11/2020","17:48","220CR0000947","DISTURBANCE","DISORDERLY CONDUCT","220 N WYOMING MOTEL 6 #208","ARREST(s) MADE",""
"01/11/2020","17:59","220CR0000948","HARASSMENT","HARASSMENT","3901 HARRISON AVE","",""
"01/11/2020","18:01","220CR0000949","SUSPICIOUS ACTIVITY","SUSPICIOUS ACTIVITY","551 BASIN CREEK RD","",""
"01/11/2020","18:31","220CR0000950","FIREWORKS COMPLAINT","FIREWORKS COMPLAINT","2500 BLK NETTIE","",""
"01/11/2020","18:33","220CR0000951","SUSPICIOUS ACTIVITY","SUSPICIOUS ACTIVITY","2905 OTTOWA","",""
"01/11/2020","18:53","220CR0000952","WELFARE CHECK","WELFARE CHECK","920 W COPPER","",""
"01/11/2020","19:34","220CR0000953","VANDALISM/CRIMINAL MISCHIEF","VANDALISM/CRIMINAL MISCHIEF","2600 S MAIN","",""
"01/11/2020","20:01","220CR0000954","WELFARE CHECK","WELFARE CHECK","2602 S DAKOTA","",""
"01/11/2020","20:27","220CR0000955","THEFT","THEFT","1500 FAIRMONT RD","",""
"01/11/2020","20:30","220CR0000956","DISTURBANCE","DISTURBANCE","909 W QUARTZ","",""
"01/11/2020","21:32","220CR0000957","BUSINESS CHECK","BUSINESS CHECK","20 W GALENA RICHEST HILL CASIN","",""
"01/11/2020","22:00","220CR0000958","JUVENILE MISC","JUVENILE MISC","************","",""
"01/11/2020","22:14","220CR0000959","UNWANTED PERSON","UNWANTED PERSON","************","",""
"01/11/2020","23:46","220CR0000960","SUSPICIOUS ACTIVITY","SUSPICIOUS ACTIVITY","MONTANA // ROW","",""
"01/12/2020","00:29","220CR0000961","SUSPICIOUS ACTIVITY","SUSPICIOUS ACTIVITY","3700 HARRISON","",""
"01/12/2020","00:35","220CR0000962","T/S","T/S","WILSON AND GRAND","",""
"01/12/2020","00:40","220CR0000963","SUSPICIOUS ACTIVITY","SUSPICIOUS ACTIVITY","818 S ARIZONA ST","",""
"01/12/2020","00:48","220CR0000964","ASSIST OTHER AGENCY","ASSIST OTHER AGENCY","HARRISON AVE AND CLEVLAND ST","",""
"01/12/2020","01:49","220CR0000965","ALARM - BURGLARY","ALARM - BURGLARY","************","",""
"01/12/2020","01:57","220CR0000966","MEDICAL - EMERGENCY","MEDICAL - EMERGENCY","1018 S UTAH","",""
"01/12/2020","02:03","220CR0000967","SUSPICIOUS ACTIVITY","SUSPICIOUS ACTIVITY","736 S UTAH","",""
"01/12/2020","02:15","220CR0000968","HARASSMENT","HARASSMENT","3400 ELIZABETH WARREN","",""
"01/12/2020","02:25","220CR0000969","WELFARE CHECK","WELFARE CHECK","1024 MARYLAND AVE APT B","",""
"01/12/2020","02:43","220CR0000970","MEDICAL - EMERGENCY","MEDICAL - EMERGENCY","910 EVANS APT G6","",""
"01/12/2020","02:45","220CR0000971","ALARM - BURGLARY","ALARM - BURGLARY","************","",""
"01/12/2020","02:51","220CR0000972","THEFT","THEFT, SHOPLIFT","3901 HARRISON AVE","",""
"01/12/2020","04:14","220CR0000973","VANDALISM/CRIMINAL MISCHIEF","VANDALISM/CRIMINAL MISCHIEF","1615 LOWELL","",""
"01/12/2020","06:08","220CR0000974","MEDICAL - EMERGENCY","MEDICAL - EMERGENCY","1367 SUNRISE","",""
"01/12/2020","07:27","220CR0000975","ALARM - BURGLARY","ALARM - BURGLARY","************","",""
"01/12/2020","08:13","220CR0000976","MEDICAL - EMERGENCY","MEDICAL - EMERGENCY","107 RAMPART DR","",""
"01/12/2020","08:42","220CR0000977","CIVIL PAPER SERVICE","CIVIL PAPER SERVICE","1910 MONROE","",""
"01/12/2020","08:44","220CR0000978","MEDICAL - EMERGENCY","MEDICAL - EMERGENCY","246 E MERCURY","",""
"01/12/2020","08:46","220CR0000979","CIVIL PAPER SERVICE","CIVIL PAPER SERVICE","1746 THOMAS","",""
"01/12/2020","08:47","220CR0000980","ALARM - BURGLARY","ALARM - BURGLARY","************","",""
"01/12/2020","08:56","220CR0000981","CIVIL PAPER SERVICE","CIVIL PAPER SERVICE","1604 HANCOCK","",""
"01/12/2020","08:59","220CR0000982","CIVIL PAPER SERVICE","CIVIL PAPER SERVICE","725 9TH","",""
"01/12/2020","09:03","220CR0000983","CIVIL PAPER SERVICE","CIVIL PAPER SERVICE","735 S MAIN","",""
"01/12/2020","09:13","220CR0000984","CIVIL PAPER SERVICE","CIVIL PAPER SERVICE","108 E CENTER","",""
"01/12/2020","09:23","220CR0000985","CIVIL PAPER SERVICE","CIVIL PAPER SERVICE","2212 WALNUT","",""
"01/12/2020","09:24","220CR0000986","CIVIL PAPER SERVICE","CIVIL PAPER SERVICE","1128 W PARK","",""
"01/12/2020","10:59","220CR0000987","ACCIDENT - INJURY","ACCIDENT - INJURY","MAIN AND PLATINUM","",""
"01/12/2020","11:28","220CR0000988","MEDICAL - EMERGENCY","MEDICAL - EMERGENCY","2835 FARRAGUT APT 207D","",""
"01/12/2020","11:30","220CR0000989","INFORMATION ONLY","INFORMATION ONLY","","",""
"01/12/2020","12:48","220CR0000990","MEDICAL - EMERGENCY","MEDICAL - EMERGENCY","2600 S MAIN ST","",""
"01/12/2020","13:10","220CR0000991","FIRE- GAS ODOR","FIRE- GAS ODOR","801 UTAH ST","",""
"01/12/2020","13:15","220CR0000992","MEDICAL - EMERGENCY","MEDICAL - EMERGENCY","2880 LOCUST","",""
"01/12/2020","13:17","220CR0000993","MEDICAL - EMERGENCY","MEDICAL - EMERGENCY","2880 LOCUCT ST","",""
"01/12/2020","14:19","220CR0000994","MEDICAL - EMERGENCY","MEDICAL - EMERGENCY","155 W QUARTZ","",""
"01/12/2020","14:26","220CR0000995","DISTURBANCE","DISTURBANCE","1628 HANCOCK ST APT B","",""
"01/12/2020","14:31","220CR0000996","MEDICAL - EMERGENCY","MEDICAL - EMERGENCY","2926 ELIZABETH WARREN","",""
"01/12/2020","15:01","220CR0000997","T/S","T/S @ PLATINUM AND MONTANA","PLATINUM AND MONTANA","",""
"01/12/2020","15:13","220CR0000998","MEDICAL - EMERGENCY","MEDICAL - EMERGENCY","5101 S WARREN ST #3","",""
"01/12/2020","15:21","220CR0000999","T/S","T/S @ MONTANA ST AND ALUMINUM ST","MONTANA ST AND ALUMINUM ST","",""
"01/12/2020","15:25","220CR0001000","DISTURBANCE","DISTURBANCE","400 S CLARK","",""
"01/12/2020","15:31","220CR0001001","T/S","T/S @ MONTANA AND PORPHYRY","MONTANA AND PORPHYRY","",""
"01/12/2020","15:35","220CR0001002","T/S","T/S @ PLATINUM AND MONTANA TOWN PUM","PLATINUM AND MONTANA TOWN PUM","",""
"01/12/2020","15:41","220CR0001003","DISTURBANCE","DISTURBANCE","303 SILVERBOW HOMES","",""
"01/12/2020","15:42","220CR0001004","WELFARE CHECK","WELFARE CHECK","1901 SAMPSON ST","",""
"01/12/2020","15:47","220CR0001005","MEDICAL - EMERGENCY","MEDICAL - EMERGENCY","500 S EMMET","",""
"01/12/2020","15:50","220CR0001006","THEFT","THEFT","DAYS INN MOTEL","",""
"01/12/2020","15:54","220CR0001007","DISTURBANCE","PROTECTIVE CUSTODY","400 S CLARK ER RM 5","ARREST(s) MADE",""
"01/12/2020","16:13","220CR0001008","CITIZEN AID","CITIZEN AID","1370 SCHLEY","",""
"01/12/2020","16:16","220CR0001009","T/S","T/S @ MONTANA AND ALUMINUM","MONTANA AND ALUMINUM","",""
"01/12/2020","16:36","220CR0001010","T/S","T/S @ MERCURY ST AND MONTANA ST","MERCURY ST AND MONTANA ST","",""
"01/12/2020","16:46","220CR0001011","T/S","T/S @ MONTANA ST AND ALUMINUM ST","MONTANA ST AND ALUMINUM ST","",""
"01/12/2020","16:54","220CR0001012","ALL OTHER","ALL OTHER","FAIRMONT","",""
"01/12/2020","16:59","220CR0001013","T/S","T/S @ PLATINUM AND MONTANA TOWN PUM","PLATINUM AND MONTANA TOWN PUM","",""
"01/12/2020","17:04","220CR0001014","ALARM - BURGLARY","ALARM - BURGLARY","************","",""
"01/12/2020","17:10","220CR0001015","T/S","T/S @ MONTANA ST AND GALENA ST","MONTANA ST AND GALENA ST","",""
"01/12/2020","17:58","220CR0001016","T/S","T/S @ MONTANA AND ALUMINUM","MONTANA AND ALUMINUM","",""
"01/12/2020","18:09","220CR0001017","HARASSMENT","HARASSMENT","317 GRANITE MTN ROAD","",""
"01/12/2020","18:10","220CR0001018","T/S","T/S @ MONTANA AND ALUMINIUM","MONTANA AND ALUMINIUM","",""
"01/12/2020","18:20","220CR0001019","T/S","T/S @ GRANITE ST AND MAIN ST","GRANITE ST AND MAIN ST","",""
"01/12/2020","18:42","220CR0001020","MEDICAL - EMERGENCY","MEDICAL - EMERGENCY","2600 S MAIN ST","",""
"01/12/2020","18:47","220CR0001021","T/S","T/S @ GALENA ST AND MAIN ST","GALENA ST AND MAIN ST","",""
"01/12/2020","19:00","220CR0001022","T/S","SPEEDING","PLATINUM AND MONTANA TOWN PUM","",""
"01/12/2020","19:03","220CR0001023","WANTED PERSON","POSSESS DRUG PARAPHERNALIA","2600 BLOCK GOODWIN","ARREST(s) MADE",""
"01/12/2020","20:34","220CR0001024","CRIMINAL TRESPASS","CRIMINAL TRESPASS","531 S MONTANA ST","",""
"01/12/2020","20:43","220CR0001025","ACCIDENT","ACCIDENT","","",""
"01/12/2020","21:06","220CR0001026","MEDICAL - EMERGENCY","MEDICAL - EMERGENCY","710 S DAKOTA ST","",""
"01/12/2020","21:27","220CR0001027","SUICIDE ATTEMPT/THREAT","SUICIDE ATTEMPT/THREAT","************","",""
"01/12/2020","21:30","220CR0001028","SUSPICIOUS ACTIVITY","SUSPICIOUS ACTIVITY","1033 MISSOULA AVE","",""
"01/12/2020","21:55","220CR0001029","DISTURBANCE","DISTURBANCE","HOWARD AND WALNUT","",""
"01/12/2020","22:24","220CR0001030","ALARM - BURGLARY","ALARM - BURGLARY","************","",""
"01/12/2020","22:49","220CR0001031","ROBBERY","ROBBERY","724 S MAIN ST","",""
"01/12/2020","23:13","220CR0001032","WANTED PERSON","CRIMINAL CONTEMPT","IRON AND MAIN","ARREST(s) MADE",""
"01/13/2020","01:21","220CR0001034","INTIMIDATION","INTIMIDATION","ALUMINUM AND COLORADO","",""
"01/13/2020","05:41","220CR0001035","ALL OTHER","ALL OTHER","MAUDE S CANYON","",""
"01/13/2020","06:39","220CR0001036","ALARM - BURGLARY","ALARM - BURGLARY","************","",""
"01/13/2020","07:44","220CR0001037","T/S","T/S @ FRONT ST AND OREGON AVE","FRONT ST AND OREGON AVE","",""
"01/13/2020","07:48","220CR0001038","CIVIL PAPER SERVICE","CIVIL PAPER SERVICE","1414 SUNRISE LN","",""
 

Subcategories

Tuesday the 21st. Affiliate Marketing.
Copyright 2012

©